Location: Sternwarte Stuttgart
(48.7670°N, 9.1830°E)
Time: 07:38:01
(UTC+01:00)

Daily predictions for brighter satellites

Satellite Brightness Start Highest point End
(mag) Time Altitude Azimuth Time Altitude Azimuth Time Altitude Azimuth
Cosmos 1725 Rocket 4.4 17:00:47 10° SSE 17:06:42 45° E 17:12:36 10° NNE
CSL-04 Debris 4.4 17:02:54 10° SE 17:08:08 51° ENE 17:13:21 10° N
Aureole 3 3.9 17:06:20 10° N 17:10:38 62° E 17:16:07 10° SSE
Cosmos 1833 Rocket 3.7 17:07:16 10° NNW 17:11:56 26° NE 17:16:36 10° E
NOSS 3-2 (A) 4.0 17:07:44 10° WSW 17:13:47 62° NW 17:20:35 10° NE
ERS-2 3.5 17:11:51 10° ESE 17:14:31 19° ENE 17:17:11 10° NNE
Cosmos 1850 Rocket 4.0 17:10:51 10° SSW 17:16:03 82° ESE 17:21:16 10° NNE
Cosmos 1862 Rocket 4.3 17:12:08 10° SSE 17:16:06 33° E 17:20:06 10° NNE
Ariane Rocket 3.1 17:11:11 10° SSE 17:16:09 56° ENE 17:21:09 10° N
Cosmos 1844 4.1 17:10:57 10° S 17:16:25 46° ESE 17:21:56 10° NE
Cosmos 2061 Rocket 4.1 17:12:22 10° S 17:18:40 88° E 17:25:06 10° N
Cosmos 1869 4.3 17:14:53 10° SSW 17:18:42 49° WNW 17:22:34 10° N
Tsikada Rocket 4.0 17:12:36 10° N 17:18:44 62° ENE 17:24:50 10° SSE
Cosmos 841 Rocket 3.9 17:15:01 10° NNW 17:20:01 40° ENE 17:24:57 10° SE
Cosmos 2278 Rocket 3.2 17:17:31 10° SSE 17:22:06 26° ESE 17:26:44 10° NE
USA 161 1.1 17:21:51 10° N 17:23:43 57° WNW 17:25:39 10° SSW
Cosmos 2263 Rocket 3.5 17:18:57 10° WSW 17:24:07 36° NW 17:29:19 10° NNE
IDEFIX/ARIANE 42P 3.8 17:20:09 10° S 17:25:11 48° W 17:30:15 10° NNW
Cosmos 2016 Rocket 4.0 17:21:42 10° S 17:28:02 85° E 17:34:20 10° N
Lacrosse 5 2.3 17:25:11 10° WSW 17:30:10 56° NNW 17:35:01 11° NE
SL-27 R/B 3.4 17:28:05 10° N 17:30:54 24° ENE 17:33:42 10° ESE
Cosmos 1741 Rocket 4.2 17:26:05 10° SSW 17:31:25 80° WNW 17:36:48 10° NNE
CENTAUR R/B 2.6 17:25:47 10° SSW 17:31:51 68° SE 17:38:51 10° NE
Meteor 2-12 Rocket 4.5 17:26:57 10° S 17:32:54 60° E 17:38:53 10° NNE
CORIOLIS 4.2 17:28:24 10° SSE 17:33:46 63° ENE 17:39:09 10° N
Cosmos 44 Rocket 4.3 17:30:04 10° NNW 17:34:12 27° NE 17:38:05 11° E
DNEPR-1 R/B 3.7 17:31:32 10° SW 17:35:51 68° NW 17:40:05 10° NE
Cosmos 1346 3.2 17:37:03 10° SSW 17:39:16 51° WNW 17:41:31 10° N
Cosmos 1782 Rocket 4.4 17:39:29 10° N 17:43:14 27° ENE 17:46:59 10° SE
SPOT 3 Rocket 4.1 17:40:06 10° SE 17:44:48 35° ENE 17:49:30 10° N
Cosmos 1633 3.5 17:42:13 10° NNE 17:45:23 27° ENE 17:48:33 10° SE
CZ-4 R/B 1.2 17:41:43 10° SSE 17:45:34 66° ENE 17:49:23 10° N
Cosmos 304 Rocket 3.7 17:41:26 10° NNW 17:46:17 77° ENE 17:51:05 10° SSE
COSMO-SKYMED 1 3.6 17:44:57 10° NE 17:48:36 26° E 17:52:15 10° SSE
Cosmos 1933 3.6 17:46:24 10° SSW 17:50:26 72° W 17:54:29 10° N
CZ-2C R/B 3.9 17:46:16 10° NNE 17:50:36 46° E 17:54:57 10° S
YAOGAN 1 2.5 17:49:29 10° SSE 17:53:44 60° ENE 17:58:01 10° N
Meteor 1-25 Rocket 4.3 17:47:53 10° N 17:53:44 64° ENE 17:59:29 10° SSE
USA 116 4.2 17:49:46 10° NNE 17:54:21 50° E 17:58:22 10° S
Meteor 1-20 Rocket 4.2 17:51:03 10° N 17:56:36 61° ENE 18:02:02 10° SSE
Cosmos 2082 Rocket 2.4 17:52:09 10° NNW 17:57:40 47° NE 18:03:06 10° SE
Meteor 1-28 Rocket 3.1 17:58:18 10° NNE 18:02:01 66° ESE 18:05:42 10° S
CSL-04 Rocket 4.4 17:57:58 10° S 18:03:09 55° WSW 18:08:26 10° NNW
Cosmos 2221 Rocket 4.5 18:01:02 10° SE 18:04:43 27° E 18:06:08 22° ENE
Cosmos 1484 Rocket 3.7 18:02:18 10° S 18:06:05 53° W 18:09:57 10° NNW
Cosmos 44 3.6 18:04:10 10° NNW 18:08:34 43° NE 18:11:17 22° ESE
Cosmos 1606 3.2 18:06:42 10° SSE 18:10:11 36° E 18:11:32 27° NE
EO 1 Del DPAF 3.7 18:09:30 24° NE 18:11:16 38° E 18:14:50 10° SSE
Landsat 4 3.6 18:09:15 12° NNE 18:12:43 63° ESE 18:16:29 10° S
METEOR-M 4.0 18:09:14 10° SSE 18:14:33 79° ENE 18:19:55 10° NNW
Cosmos 1703 Rocket 3.7 18:11:04 10° S 18:15:24 51° E 18:19:40 10° NNE
Cosmos 2233 Rocket 4.0 18:10:31 10° S 18:16:47 90° NNE 18:23:02 10° N
ATLAS 3B R/B 4.1 18:11:54 10° WNW 18:17:55 28° NNW 18:22:58 13° NE
Cosmos 1437 3.7 18:16:12 10° SSW 18:19:17 47° WNW 18:22:23 10° N
MONITOR-E 4.0 18:17:46 10° SSE 18:20:47 70° ENE 18:23:51 10° N
Okean 2 Rocket 3.4 18:17:16 10° N 18:21:37 43° ENE 18:25:56 10° SSE
ALOS 2.2 18:18:25 10° SSE 18:23:00 58° ENE 18:27:37 10° N
Cosmos 1782 2.9 18:20:25 10° S 18:24:20 52° E 18:26:14 27° NNE
BREEZE-M R/B 3.8 18:24:09 10° W 18:26:40 34° SSW 18:29:29 15° SE
Meteor 1-10 Rocket 4.4 18:21:57 10° SSE 18:27:22 48° E 18:32:55 10° NNE
Cosmos 1763 Rocket 4.5 18:22:31 10° NNW 18:27:33 48° WSW 18:32:28 10° S
CZ-4C R/B 3.0 18:23:41 10° NW 18:30:22 53° NE 18:34:40 26° ESE
Cosmos 1844 Rocket 3.7 18:26:40 10° SW 18:32:03 44° NW 18:37:25 10° NNE
USA 234 3.6 18:30:25 28° E 18:33:25 45° SE 18:39:38 10° SSW
SKYMED 2 3.4 18:33:28 17° NNE 18:36:53 76° ESE 18:41:13 10° S
Cosmos 1908 Rocket 4.3 18:32:38 10° NNW 18:36:53 54° W 18:41:06 10° S
Cosmos 1513 Rocket 4.4 18:38:27 10° S 18:44:38 60° E 18:50:45 10° NNE
SL-23 DEB 4.3 18:43:24 10° WNW 18:47:22 75° NNE 18:49:03 45° E
Sich 1 Rocket 4.5 18:43:37 10° NNW 18:47:53 50° W 18:52:11 10° S
ERS-2 3.5 18:44:28 10° S 18:47:56 39° W 18:51:26 10° NNW
Cosmos 1503 Rocket 4.0 18:44:48 10° S 18:49:59 60° ESE 18:51:14 47° NE
FENGYUN 3A 3.7 18:46:13 10° SSE 18:51:38 83° WSW 18:57:05 10° NNW
COSMOS 2455 3.3 18:46:36 10° SW 18:52:31 58° NW 18:56:32 21° NNE
Meteor 1-11 Rocket 3.7 18:47:24 10° N 18:53:18 66° ENE 18:59:02 10° SSE
Cosmos 1833 Rocket 2.9 18:50:48 10° NNW 18:56:25 71° WSW 19:02:00 10° SSE
Cosmos 1891 Rocket 4.3 18:50:52 10° S 18:56:59 72° E 19:03:03 10° NNE
Cosmos 540 Rocket 3.8 18:52:39 10° NNW 18:57:48 66° WSW 19:02:54 10° S
DMSP B5D1-3 4.4 18:55:44 29° NNE 18:58:23 74° ESE 19:03:32 10° S
Cosmos 2297 3.7 18:53:59 10° SSW 18:59:36 62° ESE 19:00:38 53° ENE
Cosmos 2278 Rocket 2.7 19:00:13 10° SW 19:05:48 59° WNW 19:09:16 24° NNE
Nadezhda 4 Rocket 3.8 19:05:40 10° N 19:11:49 77° E 19:17:56 10° SSE
Timation 2 Rocket 4.0 19:05:26 10° NNW 19:12:18 73° ENE 19:14:08 50° SE
Okean 1-7 3.6 19:09:21 10° SSW 19:13:40 58° WNW 19:15:27 33° NNW
Lacrosse 5 2.9 19:09:22 10° WNW 19:13:56 32° N 19:14:13 32° N
Cosmos 44 Rocket 3.5 19:11:19 10° NW 19:16:09 70° SW 19:16:51 60° S
Cosmos 2034 Rocket 3.9 19:10:46 10° S 19:17:08 86° E 19:23:32 10° N
CENTAUR R/B 3.7 19:17:01 10° W 19:23:03 40° NNW 19:26:28 26° NNE
COSMO-SKYMED 1 4.0 19:22:07 18° N 19:24:52 37° WNW 19:28:51 10° SW
Cosmos 1092 Rocket 3.9 19:21:26 10° N 19:26:54 66° NE 19:26:54 66° NE
Cosmos 1354 Rocket 4.2 19:22:33 10° SSW 19:27:50 71° WNW 19:28:27 63° NNW
Cosmos 292 Rocket 4.5 19:24:52 10° NNW 19:29:29 51° WSW 19:30:34 42° SSW
Cosmos 2082 Rocket 3.7 19:36:32 10° NW 19:41:36 34° WSW 19:46:36 10° SSW
Meteor 1-27 Rocket 4.5 19:57:06 10° SSW 20:02:51 53° WNW 20:03:33 50° NW
ATLAS 3B R/B 4.2 20:05:28 10° NW 20:10:13 23° N 20:10:13 23° N
USA 234 3.6 20:17:46 61° W 20:17:46 61° W 20:23:12 10° WSW
CZ-4C R/B 3.4 20:12:16 10° NW 20:19:08 52° WSW 20:19:54 50° SW
